Time,TemperatureF,DewpointF,PressureIn,WindDirection,WindDirectionDegrees,WindSpeedMPH,WindSpeedGustMPH,Humidity,HourlyPrecipIn,Conditions,Clouds,dailyrainin,SolarRadiationWatts/m^2,SoftwareType,DateUTC
2013-06-03 00:02:00,57.0,47.0,-100.00,NE,53,1.0,6.0,68,0.00,,,0.00,4.000000,,2013-06-03 06:02:00,
2013-06-03 00:12:00,57.0,47.0,-100.00,NE,53,1.0,6.0,68,0.00,,,0.00,4.000000,,2013-06-03 06:12:00,
2013-06-03 00:22:00,57.0,47.0,-100.00,NE,53,1.0,6.0,68,0.00,,,0.00,4.000000,,2013-06-03 06:22:00,
2013-06-03 00:32:00,57.0,47.0,-100.00,NE,53,1.0,6.0,68,0.00,,,0.00,4.000000,,2013-06-03 06:32:00,
2013-06-03 00:52:00,56.0,46.0,-100.00,West,262,2.0,5.0,70,0.00,,,0.00,5.000000,,2013-06-03 06:52:00,
2013-06-03 01:02:00,56.0,46.0,-100.00,West,262,2.0,5.0,70,0.00,,,0.00,5.000000,,2013-06-03 07:02:00,
2013-06-03 01:12:00,56.0,46.0,-100.00,West,262,2.0,5.0,70,0.00,,,0.00,5.000000,,2013-06-03 07:12:00,
2013-06-03 01:22:00,56.0,46.0,-100.00,West,262,2.0,5.0,70,0.00,,,0.00,5.000000,,2013-06-03 07:22:00,
2013-06-03 01:32:00,56.0,46.0,-100.00,West,262,2.0,5.0,70,0.00,,,0.00,5.000000,,2013-06-03 07:32:00,
2013-06-03 02:02:00,53.0,45.0,-100.00,East,96,3.0,6.0,73,0.00,,,0.00,3.000000,,2013-06-03 08:02:00,
2013-06-03 02:12:00,53.0,45.0,-100.00,East,96,3.0,6.0,73,0.00,,,0.00,3.000000,,2013-06-03 08:12:00,
2013-06-03 02:22:00,53.0,45.0,-100.00,East,96,3.0,6.0,73,0.00,,,0.00,3.000000,,2013-06-03 08:22:00,
2013-06-03 02:32:00,53.0,45.0,-100.00,East,96,3.0,6.0,73,0.00,,,0.00,3.000000,,2013-06-03 08:32:00,
2013-06-03 02:52:00,54.0,46.0,-100.00,SSE,154,5.0,8.0,73,0.00,,,0.00,6.000000,,2013-06-03 08:52:00,
2013-06-03 03:02:00,54.0,46.0,-100.00,SSE,154,5.0,8.0,73,0.00,,,0.00,6.000000,,2013-06-03 09:02:00,
2013-06-03 03:12:00,54.0,46.0,-100.00,SSE,154,5.0,8.0,73,0.00,,,0.00,6.000000,,2013-06-03 09:12:00,
2013-06-03 03:22:00,54.0,46.0,-100.00,SSE,154,5.0,8.0,73,0.00,,,0.00,6.000000,,2013-06-03 09:22:00,
2013-06-03 03:33:00,54.0,46.0,-100.00,SSE,154,5.0,8.0,73,0.00,,,0.00,6.000000,,2013-06-03 09:33:00,
2013-06-03 03:53:00,51.0,44.0,-100.00,West,264,2.0,11.0,76,0.00,,,0.00,8.000000,,2013-06-03 09:53:00,
2013-06-03 04:03:00,51.0,44.0,-100.00,West,264,2.0,11.0,76,0.00,,,0.00,8.000000,,2013-06-03 10:03:00,
2013-06-03 04:12:00,51.0,44.0,-100.00,West,264,2.0,11.0,76,0.00,,,0.00,8.000000,,2013-06-03 10:12:00,
2013-06-03 04:22:00,51.0,44.0,-100.00,West,264,2.0,11.0,76,0.00,,,0.00,8.000000,,2013-06-03 10:22:00,
2013-06-03 04:33:00,51.0,44.0,-100.00,West,264,2.0,11.0,76,0.00,,,0.00,8.000000,,2013-06-03 10:33:00,
2013-06-03 04:52:00,52.0,44.0,-100.00,NE,39,2.0,6.0,75,0.00,,,0.00,7.000000,,2013-06-03 10:52:00,
2013-06-03 05:02:00,52.0,44.0,-100.00,NE,39,2.0,6.0,75,0.00,,,0.00,7.000000,,2013-06-03 11:02:00,
2013-06-03 05:12:00,52.0,44.0,-100.00,NE,39,2.0,6.0,75,0.00,,,0.00,7.000000,,2013-06-03 11:12:00,
2013-06-03 05:22:00,52.0,44.0,-100.00,NE,39,2.0,6.0,75,0.00,,,0.00,7.000000,,2013-06-03 11:22:00,
2013-06-03 05:32:00,52.0,44.0,-100.00,NE,39,2.0,6.0,75,0.00,,,0.00,7.000000,,2013-06-03 11:32:00,
2013-06-03 06:02:00,50.0,42.0,-100.00,SSW,194,2.0,6.0,75,0.00,,,0.00,9.000000,,2013-06-03 12:02:00,
2013-06-03 06:12:00,50.0,42.0,-100.00,SSW,194,2.0,6.0,75,0.00,,,0.00,9.000000,,2013-06-03 12:12:00,
2013-06-03 06:22:00,50.0,42.0,-100.00,SSW,194,2.0,6.0,75,0.00,,,0.00,9.000000,,2013-06-03 12:22:00,
2013-06-03 06:32:00,50.0,42.0,-100.00,SSW,194,2.0,6.0,75,0.00,,,0.00,9.000000,,2013-06-03 12:32:00,
2013-06-03 06:52:00,50.0,42.0,-100.00,SW,224,2.0,6.0,74,0.00,,,0.00,9.000000,,2013-06-03 12:52:00,
2013-06-03 07:02:00,50.0,42.0,-100.00,SW,224,2.0,6.0,74,0.00,,,0.00,9.000000,,2013-06-03 13:02:00,
2013-06-03 07:12:00,50.0,42.0,-100.00,SW,224,2.0,6.0,74,0.00,,,0.00,9.000000,,2013-06-03 13:12:00,
2013-06-03 07:22:00,50.0,42.0,-100.00,SW,224,2.0,6.0,74,0.00,,,0.00,9.000000,,2013-06-03 13:22:00,
2013-06-03 07:32:00,50.0,42.0,-100.00,SW,224,2.0,6.0,74,0.00,,,0.00,9.000000,,2013-06-03 13:32:00,
2013-06-03 07:53:00,57.0,41.0,-100.00,ENE,67,4.0,12.0,56,0.00,,,0.00,309.000000,,2013-06-03 13:53:00,
2013-06-03 08:02:00,57.0,41.0,-100.00,ENE,67,4.0,12.0,56,0.00,,,0.00,309.000000,,2013-06-03 14:02:00,
2013-06-03 08:12:00,57.0,41.0,-100.00,ENE,67,4.0,12.0,56,0.00,,,0.00,309.000000,,2013-06-03 14:12:00,
2013-06-03 08:22:00,57.0,41.0,-100.00,ENE,67,4.0,12.0,56,0.00,,,0.00,309.000000,,2013-06-03 14:22:00,
2013-06-03 08:32:00,57.0,41.0,-100.00,ENE,67,4.0,12.0,56,0.00,,,0.00,309.000000,,2013-06-03 14:32:00,
2013-06-03 09:02:00,63.0,42.0,-100.00,WSW,245,9.0,22.0,46,0.00,,,0.00,458.000000,,2013-06-03 15:02:00,
2013-06-03 09:12:00,63.0,42.0,-100.00,WSW,245,9.0,22.0,46,0.00,,,0.00,458.000000,,2013-06-03 15:12:00,
2013-06-03 09:22:00,63.0,42.0,-100.00,WSW,245,9.0,22.0,46,0.00,,,0.00,458.000000,,2013-06-03 15:22:00,
2013-06-03 09:33:00,63.0,42.0,-100.00,WSW,245,9.0,22.0,46,0.00,,,0.00,458.000000,,2013-06-03 15:33:00,
2013-06-03 09:53:00,66.0,47.0,-100.00,ENE,69,7.0,21.0,50,0.00,,,0.00,340.000000,,2013-06-03 15:53:00,
2013-06-03 10:03:00,66.0,47.0,-100.00,ENE,69,7.0,21.0,50,0.00,,,0.00,340.000000,,2013-06-03 16:03:00,
2013-06-03 10:13:00,66.0,47.0,-100.00,ENE,69,7.0,21.0,50,0.00,,,0.00,340.000000,,2013-06-03 16:13:00,
2013-06-03 10:23:00,66.0,47.0,-100.00,ENE,69,7.0,21.0,50,0.00,,,0.00,340.000000,,2013-06-03 16:23:00,
2013-06-03 10:33:00,66.0,47.0,-100.00,ENE,69,7.0,21.0,50,0.00,,,0.00,340.000000,,2013-06-03 16:33:00,
2013-06-03 11:02:00,65.0,49.0,-100.00,SE,134,7.0,13.0,56,0.00,,,0.00,423.000000,,2013-06-03 17:02:00,
2013-06-03 11:12:00,65.0,49.0,-100.00,SE,134,7.0,13.0,56,0.00,,,0.00,423.000000,,2013-06-03 17:12:00,
2013-06-03 11:22:00,65.0,49.0,-100.00,SE,134,7.0,13.0,56,0.00,,,0.00,423.000000,,2013-06-03 17:22:00,
2013-06-03 11:33:00,65.0,49.0,-100.00,SE,134,7.0,13.0,56,0.00,,,0.00,423.000000,,2013-06-03 17:33:00,
2013-06-03 11:52:00,64.0,48.0,-100.00,ESE,119,5.0,14.0,56,0.00,,,0.00,240.000000,,2013-06-03 17:52:00,
2013-06-03 12:02:00,64.0,48.0,-100.00,ESE,119,5.0,14.0,56,0.00,,,0.00,240.000000,,2013-06-03 18:02:00,
2013-06-03 12:12:00,64.0,48.0,-100.00,ESE,119,5.0,14.0,56,0.00,,,0.00,240.000000,,2013-06-03 18:12:00,
2013-06-03 12:22:00,64.0,48.0,-100.00,ESE,119,5.0,14.0,56,0.00,,,0.00,240.000000,,2013-06-03 18:22:00,
2013-06-03 12:32:00,64.0,48.0,-100.00,ESE,119,5.0,14.0,56,0.00,,,0.00,240.000000,,2013-06-03 18:32:00,
2013-06-03 13:03:00,68.0,50.0,-100.00,ESE,116,8.0,14.0,52,0.00,,,0.00,127.000000,,2013-06-03 19:03:00,
2013-06-03 13:12:00,68.0,50.0,-100.00,ESE,116,8.0,14.0,52,0.00,,,0.00,127.000000,,2013-06-03 19:12:00,
2013-06-03 13:22:00,68.0,50.0,-100.00,ESE,116,8.0,14.0,52,0.00,,,0.00,127.000000,,2013-06-03 19:22:00,
2013-06-03 13:32:00,68.0,50.0,-100.00,ESE,116,8.0,14.0,52,0.00,,,0.00,127.000000,,2013-06-03 19:32:00,
2013-06-03 13:53:00,64.0,50.0,-100.00,SW,222,6.0,17.0,60,0.00,,,0.00,5.000000,,2013-06-03 19:53:00,
2013-06-03 14:02:00,64.0,50.0,-100.00,SW,222,6.0,17.0,60,0.00,,,0.00,5.000000,,2013-06-03 20:02:00,
2013-06-03 14:12:00,64.0,50.0,-100.00,SW,222,6.0,17.0,60,0.00,,,0.00,5.000000,,2013-06-03 20:12:00,
2013-06-03 14:22:00,64.0,50.0,-100.00,SW,222,6.0,17.0,60,0.00,,,0.00,5.000000,,2013-06-03 20:22:00,
2013-06-03 14:32:00,64.0,50.0,-100.00,SW,222,6.0,17.0,60,0.00,,,0.00,5.000000,,2013-06-03 20:32:00,
2013-06-03 14:52:00,72.0,30.0,-100.00,North,7,9.0,26.0,21,0.00,,,0.00,40.000000,,2013-06-03 20:52:00,
2013-06-03 15:02:00,72.0,30.0,-100.00,North,7,9.0,26.0,21,0.00,,,0.00,40.000000,,2013-06-03 21:02:00,
2013-06-03 15:12:00,72.0,30.0,-100.00,North,7,9.0,26.0,21,0.00,,,0.00,40.000000,,2013-06-03 21:12:00,
2013-06-03 15:22:00,72.0,30.0,-100.00,North,7,9.0,26.0,21,0.00,,,0.00,40.000000,,2013-06-03 21:22:00,
2013-06-03 15:33:00,72.0,30.0,-100.00,North,7,9.0,26.0,21,0.00,,,0.00,40.000000,,2013-06-03 21:33:00,
2013-06-03 15:53:00,70.0,32.0,-100.00,NNE,18,7.0,27.0,24,0.00,,,0.00,40.000000,,2013-06-03 21:53:00,
2013-06-03 16:03:00,70.0,32.0,-100.00,NNE,18,7.0,27.0,24,0.00,,,0.00,40.000000,,2013-06-03 22:03:00,
2013-06-03 16:12:00,70.0,32.0,-100.00,NNE,18,7.0,27.0,24,0.00,,,0.00,40.000000,,2013-06-03 22:12:00,
2013-06-03 16:22:00,70.0,32.0,-100.00,NNE,18,7.0,27.0,24,0.00,,,0.00,40.000000,,2013-06-03 22:22:00,
2013-06-03 16:32:00,70.0,32.0,-100.00,NNE,18,7.0,27.0,24,0.00,,,0.00,40.000000,,2013-06-03 22:32:00,
2013-06-03 16:53:00,73.0,31.0,-100.00,SW,214,6.0,20.0,21,0.00,,,0.00,3.000000,,2013-06-03 22:53:00,
2013-06-03 17:02:00,73.0,31.0,-100.00,SW,214,6.0,20.0,21,0.00,,,0.00,3.000000,,2013-06-03 23:02:00,
2013-06-03 17:12:00,73.0,31.0,-100.00,SW,214,6.0,20.0,21,0.00,,,0.00,3.000000,,2013-06-03 23:12:00,
2013-06-03 17:22:00,73.0,31.0,-100.00,SW,214,6.0,20.0,21,0.00,,,0.00,3.000000,,2013-06-03 23:22:00,
2013-06-03 17:32:00,73.0,31.0,-100.00,SW,214,6.0,20.0,21,0.00,,,0.00,3.000000,,2013-06-03 23:32:00,
2013-06-03 18:02:00,68.0,49.0,-100.00,East,87,6.0,20.0,50,0.00,,,0.00,0.000000,,2013-06-04 00:02:00,
2013-06-03 18:12:00,68.0,49.0,-100.00,East,87,6.0,20.0,50,0.00,,,0.00,0.000000,,2013-06-04 00:12:00,
2013-06-03 18:22:00,68.0,49.0,-100.00,East,87,6.0,20.0,50,0.00,,,0.00,0.000000,,2013-06-04 00:22:00,
2013-06-03 18:32:00,68.0,49.0,-100.00,East,87,6.0,20.0,50,0.00,,,0.00,0.000000,,2013-06-04 00:32:00,
2013-06-03 18:52:00,66.0,47.0,-100.00,East,80,5.0,16.0,51,0.00,,,0.00,0.000000,,2013-06-04 00:52:00,
2013-06-03 19:02:00,66.0,47.0,-100.00,East,80,5.0,16.0,51,0.00,,,0.00,0.000000,,2013-06-04 01:02:00,
2013-06-03 19:12:00,66.0,47.0,-100.00,East,80,5.0,16.0,51,0.00,,,0.00,0.000000,,2013-06-04 01:12:00,
2013-06-03 19:22:00,66.0,47.0,-100.00,East,80,5.0,16.0,51,0.00,,,0.00,0.000000,,2013-06-04 01:22:00,
2013-06-03 19:32:00,66.0,47.0,-100.00,East,80,5.0,16.0,51,0.00,,,0.00,0.000000,,2013-06-04 01:32:00,
2013-06-03 19:53:00,61.0,43.0,-100.00,ENE,66,4.0,13.0,52,0.00,,,0.00,0.000000,,2013-06-04 01:53:00,
2013-06-03 20:02:00,61.0,43.0,-100.00,ENE,66,4.0,13.0,52,0.00,,,0.00,0.000000,,2013-06-04 02:02:00,
2013-06-03 20:12:00,61.0,43.0,-100.00,ENE,66,4.0,13.0,52,0.00,,,0.00,0.000000,,2013-06-04 02:12:00,
2013-06-03 20:22:00,61.0,43.0,-100.00,ENE,66,4.0,13.0,52,0.00,,,0.00,0.000000,,2013-06-04 02:22:00,
2013-06-03 20:32:00,61.0,43.0,-100.00,ENE,66,4.0,13.0,52,0.00,,,0.00,0.000000,,2013-06-04 02:32:00,
2013-06-03 20:52:00,57.0,41.0,-100.00,NE,50,3.0,12.0,56,0.00,,,0.00,0.000000,,2013-06-04 02:52:00,
2013-06-03 21:02:00,57.0,41.0,-100.00,NE,50,3.0,12.0,56,0.00,,,0.00,0.000000,,2013-06-04 03:02:00,
2013-06-03 21:12:00,57.0,41.0,-100.00,NE,50,3.0,12.0,56,0.00,,,0.00,0.000000,,2013-06-04 03:12:00,
2013-06-03 21:22:00,57.0,41.0,-100.00,NE,50,3.0,12.0,56,0.00,,,0.00,0.000000,,2013-06-04 03:22:00,
2013-06-03 21:32:00,57.0,41.0,-100.00,NE,50,3.0,12.0,56,0.00,,,0.00,0.000000,,2013-06-04 03:32:00,
2013-06-03 21:54:00,56.0,40.0,-100.00,NNE,15,5.0,10.0,55,0.00,,,0.00,0.000000,,2013-06-04 03:54:00,
2013-06-03 22:03:00,56.0,40.0,-100.00,NNE,15,5.0,10.0,55,0.00,,,0.00,0.000000,,2013-06-04 04:03:00,
2013-06-03 22:13:00,56.0,40.0,-100.00,NNE,15,5.0,10.0,55,0.00,,,0.00,0.000000,,2013-06-04 04:13:00,
2013-06-03 22:23:00,56.0,40.0,-100.00,NNE,15,5.0,10.0,55,0.00,,,0.00,0.000000,,2013-06-04 04:23:00,
2013-06-03 22:33:00,56.0,40.0,-100.00,NNE,15,5.0,10.0,55,0.00,,,0.00,0.000000,,2013-06-04 04:33:00,
2013-06-03 22:53:00,54.0,40.0,-100.00,North,4,4.0,14.0,58,0.00,,,0.00,0.000000,,2013-06-04 04:53:00,
2013-06-03 23:02:00,54.0,40.0,-100.00,North,4,4.0,14.0,58,0.00,,,0.00,0.000000,,2013-06-04 05:02:00,
2013-06-03 23:12:00,54.0,40.0,-100.00,North,4,4.0,14.0,58,0.00,,,0.00,0.000000,,2013-06-04 05:12:00,
2013-06-03 23:22:00,54.0,40.0,-100.00,North,4,4.0,14.0,58,0.00,,,0.00,0.000000,,2013-06-04 05:22:00,
2013-06-03 23:32:00,54.0,40.0,-100.00,North,4,4.0,14.0,58,0.00,,,0.00,0.000000,,2013-06-04 05:32:00,
2013-06-03 23:52:00,53.0,40.0,-100.00,NNW,327,6.0,13.0,62,0.00,,,0.00,0.000000,,2013-06-04 05:52:00,